STARLINK-36498, 67318

Orbit data source: Space-Track

STARLINK-36498, 67318 is a payload satellite owned by SpaceX/Seattle (US) in LEO that was launched on Sun, 04 Jan 2026 UTC via an FALCON 9 launch vehicle from the Air Force Eastern Test Range (AFETR). Payload-class satellites include a variety of spacecraft equipped with specific instruments for various scientific and technological missions. These include communications satellites like Starlink; space stations such as the ISS; scientific satellites like the Hubble; Earth observation satellites from companies like Planet Labs, Umbra, and HawkEye 360; GPS; miniature CubeSats for education and research; and military/defense satellites.

Loading next visibility...
Identifier
67318, 2026-002P
Orbit
LEO
Country
Flag of USUS
Related business
Manufacturer
SpaceX/Seattle
Mission
Operational Commercial Communications
Bus & Motor
STARLINK V2MO, Unknown motor
Mass
575 kg wet, ~530 kg dry
Launch date (UTC)
2026-01-04 (2 months ago)
Launch vehicle
FALCON 9
Launch site
Air Force Eastern Test Range (AFETR)
Object type
Payload
Rocket body
Debris
Shape & HBR
Box + 2 Pan, 17.7 m
Radar Cross Section
36.964 m²

Expand to show TLE details & history
Last TLE update: 1 day ago

TLE from 1 day ago
0 STARLINK-36498
1 67318U 26002P   26062.19068304  .00023554  00000-0  86253-3 0  9998
2 67318  43.0052   2.0793 0002296 266.0671  93.9918 15.27587092 10140
Epoch: 2026-03-03T04:34Z
TLE epoch observation values (Epoch: 2026-03-03T04:34:35.014Z)
Latitude
-0.00004°
Longitude
132.46007°
Altitude
482.914 km
Speed
7.626 km/s
True Right ascension
00h 08m 19s
True Declination
0° 00' 00"
Sunlit
Object was in daylight at epoch
Visualization orbit readout
Latitude
Unknown
Longitude
Unknown
Altitude
Unknown
Speed
Unknown
Apparent Right ascension
Unknown
Apparent Declination
Unknown
Sunlit
N/A
Visualization observer readout
Local Sidereal Time
09:14:49
Azimuth
Unknown
Elevation
Unknown
Doppler factor
Unknown
Orbital elements
Apogee altitude
486.548 km
Perigee altitude
483.396 km
Semi-major axis
6,863.109 km
Eccentricity
0.00023
Inclination
43.0052°
RAAN
2.0793°
Arg. of periapsis
266.0671°
True anomaly
94.01805°
Mean anomaly
93.9918°
Eccentric anomaly
94.00492°
Mean motion
3.81735 °/min
Orbital period
94.31 mins
BSTAR
0.00086253
Loading maneuver chart data...
Computing Atmospheric mass density...
Loading historical data...
Loading historical data...
Loading historical data...
Loading historical data...
Loading historical data...
Loading historical data...
Loading historical data...

Documentation

Showing up to 5 results
|